Location: Bonac
(42.8765°N, 0.9753°E)
Time: 19:40:46
(UTC+00:00)

Cosmos 1953 - Pass Details

Date: 18 April 2026
Orbit: 471 x 483 km, 82.5° (Epoch: 12 May)

Event Time Altitude Azimuth Distance (km) Brightness Sun altitude
Rises 04:18:40 0° 13° (NNE) 2,558 6.3 -9.6°
Reaches altitude 10° 04:22:04 10° 47° (NE) 1,673 6.1 -9.1°
Maximum altitude 04:23:25 12° 69° (ENE) 1,568 6.3 -8.8°
Drops below altitude 10° 04:24:46 10° 91° (E) 1,669 6.0 -8.6°
Sets 04:28:08 0° 125° (SE) 2,543 6.2 -8.1°
